Regional Weather Roundup
Issued by NWS Columbia, SC

Home | Current Version | Previous Version | Text Only | Print | Product List | Glossary On
Versions: 1 2 3 4 5 6 7 8 9 10 11 12 13 14 15 16 17 18 19 20 21 22 23 24 25 26 27 28 29 30 31 32 33 34 35 36 37 38 39 40 41 42 43 44 45 46 47 48 49 50
000
ASUS42 KCAE 301410
RWRCAE
REGIONAL WEATHER ROUNDUP
NATIONAL WEATHER SERVICE COLUMBIA SC
1000 AM EDT TUE JUN 30 2015

NOTE: "FAIR" INDICATES FEW OR NO CLOUDS BELOW 12,000 FEET WITH NO
SIGNIFICANT WEATHER AND/OR OBSTRUCTIONS TO VISIBILITY.

NOT ALL STATIONS ARE QUALITY CONTROLLED BY THE NATIONAL
WEATHER SERVICE. USE DATA WITH CAUTION...ESPECIALLY
DEWPOINT OBSERVATIONS.

SCZ001>056-GAZ040-063>065-077-301500-
...UPSTATE SOUTH CAROLINA...

CITY           SKY/WX    TMP DP  RH WIND       PRES   REMARKS
ANDERSON       MOSUNNY   82  67  60 W12       30.01R
LIBERTY        MOSUNNY   80  67  64 W3        30.00
SPARTANBURG      N/A     82  68  61 NW5       29.99S
CLEMSON        MOSUNNY   82  65  56 W7        30.02S
GREENVILLE     MOSUNNY   81  64  56 NW5       30.01S
GREENWOOD      MOSUNNY   81  68  64 VRB7      30.01S
GREER          MOSUNNY   83  65  54 W6        29.99S
ROCK HILL      SUNNY     80  66  62 W8        29.99S
CHESTER        SUNNY     82  63  51 SW3       29.99S
LAURENS        MOSUNNY   81  72  74 W6        30.00S


...CENTRAL SOUTH CAROLINA...

CITY           SKY/WX    TMP DP  RH WIND       PRES   REMARKS
COLUMBIA APT   MOSUNNY   84  66  54 SW7       29.99F
COLUMBIA OWENS SUNNY     83  66  56 SW7       30.01S
DARLINGTON     SUNNY     81  64  57 SW9       30.00F
FLORENCE       SUNNY     84  65  52 W12       30.00F
MCENTIRE ANGB  MOSUNNY   84  67  55 W9        30.00F
ORANGEBURG     SUNNY     84  65  52 W9        30.01F
SUMTER SHAW    SUNNY     82  66  57 SW8       29.99S
NEWBERRY       MOSUNNY   86 N/A N/A W7        30.02F
AIKEN          FAIR     N/A N/A N/A W6        30.04S
BARNWELL       FAIR      84  72  65 SW7       30.02S
MANNING        FAIR      82  61  47 SW5       30.01F
CAMDEN         FAIR      84  64  51 SW9       30.00S
LANCASTER      SUNNY     82  66  57 SW8       29.99F
WINNSBORO      SUNNY     82  64  54 W8        30.00F


...EASTERN AND COASTAL SOUTH CAROLINA...

CITY           SKY/WX    TMP DP  RH WIND       PRES   REMARKS
MYRTLE BEACH   SUNNY     84  66  54 SW7       30.03S
N MYRTLE BCH   SUNNY     83  68  60 W6        30.01S
CONWAY         FAIR      81  68  65 S5        30.02S
MARION         FAIR      82  66  57 SW7       30.01S
HARTSVILLE     FAIR      82  63  51 W8        29.99S
FLORENCE       SUNNY     84  65  52 W12       30.00F
DARLINGTON     SUNNY     81  64  57 SW9       30.00F
CHARLESTON APT MOSUNNY   83  69  62 W8        30.02F
MOUNT PLEASANT FAIR      84  70  61 W6        30.03S
WALTERBORO     SUNNY     81  68  65 SW8       30.03S
BEAUFORT       PTSUNNY   83  72  69 W7        30.03F


...EASTERN GEORGIA...

CITY           SKY/WX    TMP DP  RH WIND       PRES   REMARKS
AUGUSTA BUSH F SUNNY     82  69  64 SW6       30.00S
AUGUSTA DANIEL SUNNY     83  68  60 VRB6      30.02S
THOMSON        SUNNY     83  72  70 W3        30.05S
WASHINGTON     FAIR      84  73  70 W8        30.01S
CLAXTON        FAIR      82  73  74 W5        30.03F
SYLVANIA       SUNNY     84  75  73 W6        30.03F
STATESBORO     SUNNY     83  75  77 W8        30.03S
SAVANNAH       CLOUDY    84  71  65 W8        30.03F


...SOUTHERN NORTH CAROLINA...

CITY           SKY/WX    TMP DP  RH WIND       PRES   REMARKS
CHARLOTTE      SUNNY     82  64  54 W7        29.98S
MONROE         SUNNY     81  65  58 SW13      29.97F
WADESBORO      SUNNY     83  64  51 SW8       29.97S
ROCKINGHAM     SUNNY     80  65  59 SW8       29.98S
RUTHERFORDTON  SUNNY     81  59  47 SW6       29.99S
ASHEVILLE      MOSUNNY   71  57  61 NW3       30.06F

$$



USA.gov is the U.S. government's official web portal to all federal, state and local government web resources and services.